Location: �terpigny
(49.8910°N, 2.9249°E)
Time: 12:51:58
(UTC+00:00)

CZ-2D R/B - Pass Details

Date: 24 October 2021
Orbit: 519 x 537 km, 97.4° (Epoch: 06 December)

Event Time Altitude Azimuth Distance (km) Brightness Sun altitude
Rises 17:16:30 0° 157° (SSE) 2,668 6.7 -6.6°
Reaches altitude 10° 17:18:36 10° 154° (SSE) 1,785 5.8 -7.0°
Maximum altitude 17:22:25 63° 73° (ENE) 602 3.3 -7.6°
Drops below altitude 10° 17:26:17 10° 353° (N) 1,807 5.9 -8.2°
Sets 17:28:26 0° 350° (N) 2,705 6.9 -8.5°
